Tracking 19795 objects as of 20-Jul-2019
HD Live streaming from Space Station
objects crossing your sky now

COSMOS 1275 DEB

Track COSMOS 1275 DEB now!
10-day predictions


NORAD ID: 42232
Int'l Code: 1981-053UY
Perigee: 925.2 km
Apogee: 1,210.4 km
Inclination: 83.0 °
Period: 106.4 minutes
Semi major axis: 7438 km
RCS: Unknown
Launch date: June 4, 1981
Source: Commonwealth of Independent States (former USSR) (CIS)
Launch site: PLESETSK MISSILE AND SPACE COMPLEX (PKMTR)

Note: This is SATELLITE DEBRIS
aabbcc
Your satellite tracking list
Your tracking list is empty




NASA's NSSDC Master Catalog

Two Line Element Set (TLE):
1 42232U 81053UY  19191.78777969 +.00000262 +00000-0 +32758-3 0  9999
2 42232 083.0131 225.3563 0191707 134.8525 226.8376 13.53157861264747
Source of the keplerian elements: AFSPC